TimeEST,TemperatureF,Dew PointF,Humidity,Sea Level PressureIn,VisibilityMPH,Wind Direction,Wind SpeedMPH,Gust SpeedMPH,PrecipitationIn,Events,Conditions,WindDirDegrees,DateUTC
12:15 AM,21.0,18.3,89,30.28,7.0,East,3.5,-,N/A,,Clear,90,2013-02-10 05:15:00
12:36 AM,22.3,19.6,89,30.26,10.0,ESE,3.5,-,N/A,,Clear,120,2013-02-10 05:36:00
12:55 AM,22.5,19.4,88,30.25,7.0,ESE,4.6,-,N/A,,Clear,110,2013-02-10 05:55:00
1:15 AM,22.1,19.2,89,30.25,10.0,ESE,4.6,-,N/A,,Clear,110,2013-02-10 06:15:00
1:35 AM,21.6,18.5,88,30.24,7.0,Calm,Calm,-,N/A,,Clear,0,2013-02-10 06:35:00
1:55 AM,20.1,17.2,89,30.23,7.0,Calm,Calm,-,N/A,,Clear,0,2013-02-10 06:55:00
2:15 AM,19.8,17.1,89,30.23,5.0,Calm,Calm,-,N/A,,Clear,0,2013-02-10 07:15:00
2:36 AM,20.5,18.1,91,30.22,7.0,ESE,4.6,-,N/A,,Clear,110,2013-02-10 07:36:00
2:55 AM,21.4,18.5,89,30.22,7.0,ESE,4.6,-,N/A,,Clear,110,2013-02-10 07:55:00
3:15 AM,21.7,18.5,87,30.21,7.0,ESE,4.6,-,N/A,,Clear,110,2013-02-10 08:15:00
3:36 AM,22.8,19.0,85,30.20,10.0,ESE,4.6,-,N/A,,Clear,120,2013-02-10 08:36:00
3:55 AM,23.4,19.2,84,30.20,10.0,ESE,4.6,-,N/A,,Clear,120,2013-02-10 08:55:00
4:15 AM,23.9,19.2,82,30.20,10.0,ESE,4.6,-,N/A,,Clear,110,2013-02-10 09:15:00
4:35 AM,24.1,19.0,81,30.20,10.0,ESE,3.5,-,N/A,,Clear,120,2013-02-10 09:35:00
4:55 AM,24.4,19.4,81,30.19,10.0,ESE,3.5,-,N/A,,Clear,110,2013-02-10 09:55:00
5:16 AM,24.8,19.4,80,30.20,10.0,ESE,3.5,-,N/A,,Clear,110,2013-02-10 10:16:00
5:35 AM,25.0,19.4,79,30.20,10.0,Calm,Calm,-,N/A,,Clear,0,2013-02-10 10:35:00
5:55 AM,24.6,19.2,80,30.21,10.0,Calm,Calm,-,N/A,,Clear,0,2013-02-10 10:55:00
6:15 AM,23.4,19.0,84,30.20,10.0,Calm,Calm,-,N/A,,Clear,0,2013-02-10 11:15:00
6:35 AM,23.9,19.2,82,30.20,10.0,East,3.5,-,N/A,,Clear,80,2013-02-10 11:35:00
6:56 AM,23.7,19.0,82,30.20,10.0,Calm,Calm,-,N/A,,Clear,0,2013-02-10 11:56:00
7:15 AM,24.4,19.4,81,30.17,10.0,East,4.6,-,N/A,,Clear,90,2013-02-10 12:15:00
7:35 AM,25.5,19.9,79,30.17,10.0,ESE,4.6,-,N/A,,Scattered Clouds,110,2013-02-10 12:35:00
7:55 AM,26.2,20.3,78,30.15,10.0,East,5.8,-,N/A,,Mostly Cloudy,100,2013-02-10 12:55:00
8:15 AM,26.6,20.5,78,30.14,10.0,East,4.6,-,N/A,,Overcast,90,2013-02-10 13:15:00
8:35 AM,27.5,21.2,77,30.14,10.0,East,4.6,-,N/A,,Overcast,100,2013-02-10 13:35:00
8:55 AM,28.2,21.7,77,30.15,10.0,ESE,5.8,-,N/A,,Overcast,120,2013-02-10 13:55:00
9:15 AM,29.1,21.9,74,30.13,10.0,ESE,6.9,-,N/A,,Overcast,110,2013-02-10 14:15:00
9:35 AM,30.0,22.1,72,30.12,10.0,ESE,6.9,-,N/A,,Overcast,110,2013-02-10 14:35:00
9:55 AM,31.3,22.1,69,30.12,10.0,ESE,6.9,-,N/A,,Overcast,120,2013-02-10 14:55:00
10:15 AM,32.0,22.1,67,30.11,10.0,SE,6.9,-,N/A,,Overcast,130,2013-02-10 15:15:00
10:35 AM,33.6,23.0,65,30.12,10.0,SSE,5.8,-,N/A,,Overcast,150,2013-02-10 15:35:00
10:55 AM,36.1,23.2,59,30.11,10.0,SE,8.1,-,N/A,,Overcast,140,2013-02-10 15:55:00
11:15 AM,37.6,23.7,57,30.10,10.0,South,8.1,-,N/A,,Overcast,170,2013-02-10 16:15:00
11:35 AM,38.5,24.8,58,30.10,10.0,SE,5.8,-,N/A,,Overcast,140,2013-02-10 16:35:00
11:55 AM,39.4,24.6,56,30.09,10.0,SE,5.8,-,N/A,,Overcast,140,2013-02-10 16:55:00
12:15 PM,41.0,25.9,55,30.07,10.0,SE,6.9,-,N/A,,Overcast,140,2013-02-10 17:15:00
12:35 PM,42.1,25.0,51,30.04,10.0,SE,9.2,-,N/A,,Overcast,130,2013-02-10 17:35:00
12:55 PM,42.8,26.1,52,30.02,10.0,SE,8.1,-,N/A,,Overcast,130,2013-02-10 17:55:00
1:15 PM,42.8,26.1,52,30.02,10.0,SSE,8.1,-,N/A,,Overcast,150,2013-02-10 18:15:00
1:35 PM,42.3,27.0,55,30.01,10.0,SSE,8.1,-,N/A,,Overcast,150,2013-02-10 18:35:00
1:55 PM,41.9,27.5,57,30.00,10.0,SSE,9.2,-,N/A,,Overcast,160,2013-02-10 18:55:00
2:15 PM,42.1,28.0,58,29.98,10.0,SE,5.8,-,N/A,,Overcast,130,2013-02-10 19:15:00
2:35 PM,42.8,29.1,58,29.96,10.0,SE,4.6,-,N/A,,Overcast,130,2013-02-10 19:35:00
2:55 PM,42.6,29.5,60,29.95,10.0,East,4.6,-,N/A,,Overcast,90,2013-02-10 19:55:00
3:15 PM,41.0,30.2,65,29.94,10.0,East,4.6,-,N/A,,Overcast,90,2013-02-10 20:15:00
3:35 PM,41.0,30.4,66,29.93,10.0,East,5.8,-,N/A,,Overcast,100,2013-02-10 20:35:00
3:55 PM,40.6,30.9,68,29.93,10.0,SE,8.1,-,N/A,,Overcast,130,2013-02-10 20:55:00
4:15 PM,42.8,30.2,61,29.93,10.0,SE,8.1,-,N/A,,Overcast,130,2013-02-10 21:15:00
4:35 PM,42.8,30.0,61,29.92,10.0,SE,3.5,-,N/A,,Overcast,130,2013-02-10 21:35:00
4:55 PM,42.1,29.8,62,29.88,10.0,ESE,8.1,-,N/A,,Overcast,120,2013-02-10 21:55:00
5:15 PM,43.0,28.2,56,29.87,10.0,ESE,6.9,-,N/A,,Overcast,120,2013-02-10 22:15:00
5:35 PM,43.0,27.7,55,29.87,10.0,SE,8.1,-,N/A,,Overcast,140,2013-02-10 22:35:00
5:55 PM,43.0,27.5,54,29.87,10.0,SE,8.1,-,N/A,,Overcast,140,2013-02-10 22:55:00
6:15 PM,42.8,27.5,55,29.85,10.0,SE,5.8,-,N/A,Rain,Light Rain,130,2013-02-10 23:15:00
6:35 PM,42.3,28.9,59,29.85,10.0,ESE,4.6,-,N/A,Rain,Light Rain,120,2013-02-10 23:35:00
6:55 PM,42.1,29.3,61,29.83,10.0,SE,5.8,-,N/A,,Overcast,130,2013-02-10 23:55:00
7:15 PM,42.4,29.3,60,29.84,10.0,SE,8.1,-,N/A,,Light Drizzle,140,2013-02-11 00:15:00
7:35 PM,43.0,29.3,59,29.84,10.0,SE,9.2,16.1,N/A,,Overcast,140,2013-02-11 00:35:00
7:55 PM,41.0,32.5,72,29.81,7.0,SE,10.4,19.6,N/A,Rain,Light Rain,130,2013-02-11 00:55:00
8:15 PM,41.2,33.8,75,29.79,10.0,SE,9.2,-,N/A,,Overcast,130,2013-02-11 01:15:00
8:35 PM,42.3,32.4,68,29.77,10.0,SE,8.1,-,N/A,,Overcast,130,2013-02-11 01:35:00
8:55 PM,43.7,31.6,63,29.77,10.0,SE,8.1,-,N/A,,Overcast,140,2013-02-11 01:55:00
9:15 PM,44.6,30.6,58,29.76,10.0,SSE,9.2,16.1,N/A,,Overcast,150,2013-02-11 02:15:00
9:35 PM,45.5,30.7,56,29.76,10.0,South,10.4,23.0,N/A,,Overcast,170,2013-02-11 02:35:00
9:55 PM,45.9,32.0,58,29.74,10.0,South,13.8,25.3,N/A,,Overcast,170,2013-02-11 02:55:00
10:15 PM,45.5,32.9,61,29.73,10.0,South,10.4,19.6,N/A,Rain,Light Rain,180,2013-02-11 03:15:00
10:35 PM,45.7,34.0,64,29.73,10.0,South,10.4,19.6,N/A,,Overcast,180,2013-02-11 03:35:00
10:55 PM,44.6,37.4,76,29.73,10.0,South,10.4,20.7,N/A,Rain,Light Rain,180,2013-02-11 03:55:00
11:15 PM,45.0,38.3,77,29.71,10.0,South,12.7,20.7,N/A,,Overcast,180,2013-02-11 04:15:00
11:35 PM,45.5,38.7,77,29.70,10.0,South,9.2,16.1,N/A,,Overcast,190,2013-02-11 04:35:00
11:55 PM,45.9,39.4,78,29.69,10.0,South,15.0,23.0,N/A,,Overcast,180,2013-02-11 04:55:00